SL-16 DEB, 22348

Orbit data source: Space-Track

SL-16 DEB, 22348 is space debris in LEO originally from a launch on Fri, 25 Dec 1992 UTC launched from the Tyuratam Missile And Space Complex (TTMTR). Debris objects in space refer to the collection of defunct objects orbiting the Earth. Examples of debris include non-operational satellites, rocket bodies, and fragments generated from explosions, collisions, or faulty payload assembly.

Loading next visibility...
Identifier
22348, 1992-093AM
Orbit
LEO
Last TLE update
17 hours ago
Origin
Manufacturer
Unknown
Mission
Spacecraft
Bus & Motor
Unknown
Mass
Unknown
Launch date (UTC)
1992-12-25 (33 years ago)
Launch vehicle
Unknown
Launch site
Tyuratam Missile And Space Complex (TTMTR)
Object type
Payload
Rocket body
Debris
Shape & HBR
Unknown
Radar Cross Section
Small (<0.1 m²)

Expand to show TLE details & history

TLE from 17 hours ago
0 SL-16 DEB
1 22348U 92093AM  25186.50221249  .00000236  00000-0  15467-3 0  9996
2 22348  71.2576 200.7246 0104684 195.8016 318.6343 14.08925521664543
Epoch: 2025-07-05T12:03Z
TLE epoch observation values (Epoch: 2025-07-05T12:03:11.159Z)
Latitude
24.90657°
Longitude
-92.82726°
Altitude
809.014 km
Speed
7.48 km/s
True Right ascension
00h 46m 50s
True Declination
24° 46' 35"
Sunlit
Object was in daylight at epoch
Visualization orbit readout
Latitude
21.7849°
Longitude
-93.02119°
Altitude
804.97 km
Speed
7.484 km/s
Apparent Right ascension
02h 32m 50s
Apparent Declination
-8° 12' 49"
Sunlit
Object is in daylight
Visualization observer readout
Local Sidereal Time
17:03:45
Azimuth
57.041° ENE
Elevation
-43.793°
Doppler factor
1
Orbital elements
Apogee altitude
936.738 km
Perigee altitude
785.175 km
Semi-major axis
7,239.093 km
Eccentricity
0.01047
Inclination
71.2576°
RAAN
200.7246°
Arg. of periapsis
195.8016°
True anomaly
Unknown
Mean anomaly
318.6343°
Eccentric anomaly
Unknown
Mean motion
3.52385 °/min
Orbital period
102.16 mins
BSTAR
0.00015467
Loading maneuver chart data...
Loading SW <> Apogee altitude chart data...
Loading historical data...
Loading historical data...
Loading historical data...
Loading historical data...
Loading historical data...
Loading historical data...
Loading historical data...

SL-16 DEB Visibility forecast

Observer location: undefined°, undefined°

Span
Click to sort rows by Start time (UTC) header in descending order
Start Az.
Max El. time (UTC)
Max El. Az.
Max El.
End time (UTC)
End Az.
10 mins2025-07-06 11:44:28.503Z345.173° N2025-07-06 11:49:28.503Z64.482° ENE41.068°2025-07-06 11:54:28.503Z143.97° SSE
5 mins2025-07-06 13:31:28.503Z284.872° WNW2025-07-06 13:33:28.503Z259.689° W15.945°2025-07-06 13:36:28.503Z225.134° WSW
7 mins2025-07-07 00:56:28.503Z138.374° SSE2025-07-07 00:59:28.503Z102.6° ESE20.95°2025-07-07 01:03:28.503Z56.276° ENE
10 mins2025-07-07 02:39:28.503Z224.781° SW2025-07-07 02:43:28.503Z287.36° WNW39.167°2025-07-07 02:49:28.503Z13.964° NNE
|